Weather in Ulyukol

Russia / Krasnoyarsk Krai     56°42′25″N   94°55′25″E
temp.,
°C
wind,
m/s
gust,
m/s
humid.,
%
clouds,
%
prec.,
mm/h
press.,
hPa
HPBL,
m
13 june, sun
sun1301:00+8wsw116186 0.0 101310
04:00+7wsw115920 0.0 101211
07:00+14wnw2446100 0.0 1012247
10:00+19w46318 0.0 10102180
13:00+21w563291 0.0 10092725
16:00+19wnw6841100 0.0 10081942
19:00+12w51174100 0.1 10091137
22:00+10wnw41097100 0.9 1009805
14 june, mon
mon1401:00+10wnw279695 1.0 1010347
04:00+9nnw379698 1.0 1011411
07:00+9nnw47840 1.0 1014514
10:00+14nnw574652 0.0 10141872
13:00+17nnw5733100 0.0 10142871
16:00+17nnw473196 0.0 10152652
19:00+16nw573995 0.0 10151378
22:00+9wsw116585 0.0 101610
15 june, tue
tue1501:00+9sw236169 0.0 101655
04:00+8wsw2263100 0.0 101531
07:00+13wnw2553100 0.0 1015340
10:00+18wnw453788 0.0 10151438
13:00+18nw453499 0.0 10142255
16:00+21nw362879 0.0 10133068
19:00+19nw234181 0.0 1014529
22:00+12wsw22697 0.0 101513
16 june, wed
wed1601:00+9wsw11894 0.0 101610
04:00+8s11930 0.0 101710
07:00+14ese11661 0.0 1017260
10:00+19ese32467 0.0 10171051
13:00+22se333610 0.0 10151999
16:00+24sse453646 0.0 10142402
19:00+22s354565 0.0 1013455
22:00+14ssw387415 0.0 1014145
17 june, thu
thu1701:00+14ssw287472 0.0 1013126
04:00+13ssw278042 0.0 1013119
07:00+19sw376257 0.0 1012408
10:00+21wsw3656100 0.0 1011715
13:00+26wsw563582 0.0 10082651
16:00+21wsw386095 0.0 1008405
19:00+20wsw3776100 0.4 1007300
22:00+17sw41193100 3.8 1007361